| time (UTC) | temp C | wind direction | speed KPH | gust KPH | rain 1hr cm | rain 24hr cm | rain mn cm | humidity % | barometer mb |
| 20260906114013 | 22 | 176 | 0.0 | 3.2 | 0.00 | 0.00 | 0.00 | 87 | 1013.2 |
| 20260906113504 | 22 | 176 | 0.0 | 3.2 | 0.00 | 0.00 | 0.00 | 87 | 1013.3 |
| 20260906113008 | 22 | 176 | 0.0 | 3.2 | 0.00 | 0.00 | 0.00 | 87 | 1013.3 |
| 20260906112504 | 22 | 176 | 0.0 | 3.2 | 0.00 | 0.00 | 0.00 | 87 | 1013.1 |
| 20260906112004 | 22 | 176 | 0.0 | 3.2 | 0.00 | 0.00 | 0.00 | 87 | 1013.1 |
| 20260906111522 | 22 | 176 | 0.0 | 3.2 | 0.00 | 0.00 | 0.00 | 87 | 1013.0 |
| 20260906111006 | 22 | 176 | 0.0 | 0.0 | 0.00 | 0.00 | 0.00 | 87 | 1012.9 |
| 20260906110507 | 22 | 176 | 0.0 | 3.2 | 0.00 | 0.00 | 0.00 | 87 | 1012.9 |
| 20260906110018 | 22 | 176 | 0.0 | 3.2 | 0.00 | 0.00 | 0.00 | 86 | 1012.8 |
| 20260906105510 | 22 | 176 | 0.0 | 1.6 | 0.00 | 0.00 | 0.00 | 86 | 1012.8 |
| 20260906105014 | 22 | 176 | 0.0 | 3.2 | 0.00 | 0.00 | 0.00 | 86 | 1012.9 |
| 20260906104530 | 22 | 176 | 0.0 | 3.2 | 0.00 | 0.00 | 0.00 | 86 | 1012.9 |
| 20260906104014 | 22 | 176 | 0.0 | 3.2 | 0.00 | 0.00 | 0.00 | 86 | 1012.8 |
| 20260906103514 | 22 | 176 | 0.0 | 3.2 | 0.00 | 0.00 | 0.00 | 86 | 1012.8 |
| 20260906103029 | 22 | 176 | 0.0 | 3.2 | 0.00 | 0.00 | 0.00 | 85 | 1012.7 |
| 20260906102505 | 22 | 176 | 0.0 | 3.2 | 0.00 | 0.00 | 0.00 | 85 | 1012.8 |
| 20260906102003 | 22 | 176 | 0.0 | 3.2 | 0.00 | 0.00 | 0.00 | 85 | 1012.8 |
| 20260906101510 | 22 | 176 | 0.0 | 3.2 | 0.00 | 0.00 | 0.00 | 85 | 1012.8 |
| 20260906101005 | 22 | 176 | 0.0 | 3.2 | 0.00 | 0.00 | 0.00 | 84 | 1012.8 |
| 20260906100507 | 22 | 176 | 0.0 | 3.2 | 0.00 | 0.00 | 0.00 | 84 | 1012.9 |
| 20260906100014 | 22 | 176 | 0.0 | 3.2 | 0.00 | 0.00 | 0.00 | 84 | 1012.8 |
| 20260906095510 | 23 | 176 | 0.0 | 3.2 | 0.00 | 0.00 | 0.00 | 84 | 1012.9 |
| 20260906095014 | 23 | 176 | 0.0 | 3.2 | 0.00 | 0.00 | 0.00 | 84 | 1012.8 |
| 20260906094621 | 23 | 176 | 0.0 | 3.2 | 0.00 | 0.00 | 0.00 | 83 | 1012.8 |
| 20260906094013 | 23 | 176 | 0.0 | 3.2 | 0.00 | 0.00 | 0.00 | 83 | 1012.7 |
| 20260906093514 | 23 | 176 | 0.0 | 3.2 | 0.00 | 0.00 | 0.00 | 83 | 1012.7 |
| 20260906093026 | 23 | 176 | 0.0 | 3.2 | 0.00 | 0.00 | 0.00 | 83 | 1012.7 |
| 20260906092516 | 23 | 176 | 0.0 | 3.2 | 0.00 | 0.00 | 0.00 | 82 | 1012.5 |
| 20260906092014 | 23 | 176 | 0.0 | 3.2 | 0.00 | 0.00 | 0.00 | 81 | 1012.5 |
| 20260906091507 | 23 | 176 | 0.0 | 3.2 | 0.00 | 0.00 | 0.00 | 81 | 1012.7 |
| 20260906091004 | 23 | 176 | 0.0 | 3.2 | 0.00 | 0.00 | 0.00 | 80 | 1012.6 |
| 20260906090503 | 23 | 176 | 0.0 | 3.2 | 0.00 | 0.00 | 0.00 | 80 | 1012.5 |
| 20260906090012 | 23 | 194 | 0.0 | 3.2 | 0.00 | 0.00 | 0.00 | 80 | 1012.6 |
| 20260906085508 | 23 | 210 | 1.6 | 3.2 | 0.00 | 0.00 | 0.00 | 80 | 1012.6 |
| 20260906085010 | 23 | 183 | 1.6 | 3.2 | 0.00 | 0.00 | 0.00 | 79 | 1012.7 |
| 20260906084518 | 23 | 168 | 1.6 | 3.2 | 0.00 | 0.00 | 0.00 | 79 | 1012.6 |
| 20260906084013 | 23 | 164 | 1.6 | 4.8 | 0.00 | 0.00 | 0.00 | 79 | 1012.6 |
| 20260906083513 | 23 | 208 | 1.6 | 6.4 | 0.00 | 0.00 | 0.00 | 79 | 1012.6 |
| 20260906083033 | 24 | 212 | 1.6 | 8.0 | 0.00 | 0.00 | 0.00 | 79 | 1012.7 |
| 20260906082515 | 24 | 202 | 3.2 | 8.0 | 0.00 | 0.00 | 0.00 | 79 | 1012.6 |
| 20260906082014 | 24 | 203 | 3.2 | 6.4 | 0.00 | 0.00 | 0.00 | 79 | 1012.4 |
| 20260906081527 | 23 | 204 | 1.6 | 6.4 | 0.00 | 0.00 | 0.00 | 79 | 1012.6 |
| 20260906081016 | 24 | 191 | 1.6 | 6.4 | 0.00 | 0.00 | 0.00 | 79 | 1012.5 |
| 20260906080516 | 23 | 209 | 1.6 | 4.8 | 0.00 | 0.00 | 0.00 | 79 | 1012.3 |
| 20260906080022 | 24 | 158 | 1.6 | 3.2 | 0.00 | 0.00 | 0.00 | 79 | 1012.4 |
| 20260906075509 | 23 | 183 | 1.6 | 4.8 | 0.00 | 0.00 | 0.00 | 79 | 1012.5 |
| 20260906075006 | 23 | 175 | 1.6 | 4.8 | 0.00 | 0.00 | 0.00 | 79 | 1012.4 |
| 20260906074516 | 23 | 150 | 1.6 | 3.2 | 0.00 | 0.00 | 0.00 | 79 | 1012.5 |
| 20260906074011 | 23 | 218 | 1.6 | 12.9 | 0.00 | 0.00 | 0.00 | 79 | 1012.6 |
| 20260906073511 | 23 | 203 | 4.8 | 12.9 | 0.00 | 0.00 | 0.00 | 79 | 1012.6 |
| 20260906073022 | 23 | 251 | 4.8 | 9.7 | 0.00 | 0.00 | 0.00 | 79 | 1012.8 |
| 20260906072511 | 23 | 236 | 3.2 | 8.0 | 0.00 | 0.00 | 0.00 | 78 | 1012.9 |
| 20260906072015 | 24 | 162 | 1.6 | 9.7 | 0.00 | 0.00 | 0.00 | 78 | 1012.8 |
| 20260906071529 | 23 | 139 | 1.6 | 9.7 | 0.00 | 0.00 | 0.00 | 78 | 1013.0 |
| 20260906071018 | 23 | 191 | 1.6 | 3.2 | 0.00 | 0.00 | 0.00 | 77 | 1013.0 |
| 20260906070515 | 24 | 180 | 1.6 | 3.2 | 0.00 | 0.00 | 0.00 | 77 | 1013.0 |
| 20260906070030 | 24 | 178 | 1.6 | 3.2 | 0.00 | 0.00 | 0.00 | 77 | 1013.1 |
| 20260906065517 | 24 | 224 | 0.0 | 3.2 | 0.00 | 0.00 | 0.00 | 76 | 1013.1 |
| 20260906065006 | 24 | 199 | 1.6 | 3.2 | 0.00 | 0.00 | 0.00 | 76 | 1013.0 |
| 20260906064511 | 24 | 217 | 0.0 | 3.2 | 0.00 | 0.00 | 0.00 | 76 | 1013.0 |
| 20260906064009 | 24 | 116 | 0.0 | 3.2 | 0.00 | 0.00 | 0.00 | 1013.0 | |
| 20260906063510 | 24 | 164 | 1.6 | 3.2 | 0.00 | 0.00 | 0.00 | 74 | 1013.0 |
| 20260906063021 | 25 | 145 | 0.0 | 3.2 | 0.00 | 0.00 | 0.00 | 74 | 1013.0 |
| 20260906062513 | 25 | 174 | 0.0 | 3.2 | 0.00 | 0.00 | 0.00 | 74 | 1013.1 |
| 20260906062011 | 25 | 89 | 0.0 | 3.2 | 0.00 | 0.00 | 0.00 | 74 | 1013.1 |
| 20260906061526 | 25 | 105 | 0.0 | 3.2 | 0.00 | 0.00 | 0.00 | 74 | 1013.4 |
| 20260906061015 | 25 | 116 | 0.0 | 3.2 | 0.00 | 0.00 | 0.00 | 73 | 1013.6 |
| 20260906060513 | 25 | 116 | 0.0 | 3.2 | 0.00 | 0.00 | 0.00 | 1013.5 | |
| 20260906060030 | 25 | 126 | 0.0 | 3.2 | 0.00 | 0.00 | 0.00 | 1013.4 | |
| 20260906055515 | 25 | 99 | 0.0 | 3.2 | 0.00 | 0.00 | 0.00 | 73 | 1013.5 |
| 20260906055017 | 25 | 141 | 0.0 | 4.8 | 0.00 | 0.00 | 0.00 | 73 | 1013.7 |
| 20260906054539 | 25 | 110 | 1.6 | 4.8 | 0.00 | 0.00 | 0.00 | 73 | 1013.9 |
| 20260906054010 | 25 | 124 | 1.6 | 8.0 | 0.00 | 0.00 | 0.00 | 73 | 1014.0 |
| 20260906053514 | 25 | 120 | 4.8 | 8.0 | 0.00 | 0.00 | 0.00 | 73 | 1014.1 |
| 20260906053016 | 26 | 68 | 1.6 | 8.0 | 0.00 | 0.00 | 0.00 | 73 | 1014.2 |
| 20260906052512 | 26 | 93 | 1.6 | 9.7 | 0.00 | 0.00 | 0.00 | 71 | 1014.1 |
| 20260906052014 | 26 | 119 | 3.2 | 9.7 | 0.00 | 0.00 | 0.00 | 70 | 1013.9 |
| 20260906051527 | 26 | 101 | 1.6 | 9.7 | 0.00 | 0.00 | 0.00 | 69 | 1013.9 |
| 20260906051011 | 27 | 83 | 1.6 | 6.4 | 0.00 | 0.00 | 0.00 | 68 | 1013.9 |
| 20260906050513 | 27 | 87 | 1.6 | 8.0 | 0.00 | 0.00 | 0.00 | 68 | 1014.1 |
| 20260906050035 | 27 | 130 | 0.0 | 8.0 | 0.00 | 0.00 | 0.00 | 67 | 1013.7 |
| 20260906045514 | 27 | 66 | 1.6 | 6.4 | 0.00 | 0.00 | 0.00 | 67 | 1013.7 |
| 20260906045014 | 27 | 236 | 1.6 | 3.2 | 0.00 | 0.00 | 0.00 | 67 | 1013.9 |
| 20260906044531 | 27 | 31 | 1.6 | 3.2 | 0.00 | 0.00 | 0.00 | 67 | 1013.4 |
| 20260906044020 | 27 | 83 | 0.0 | 3.2 | 0.00 | 0.00 | 0.00 | 67 | 1012.9 |
| 20260906043518 | 27 | 137 | 0.0 | 3.2 | 0.00 | 0.00 | 0.00 | 67 | 1012.9 |
| 20260906043027 | 27 | 190 | 0.0 | 4.8 | 0.00 | 0.00 | 0.00 | 69 | 1012.9 |
| 20260906042509 | 27 | 133 | 1.6 | 4.8 | 0.00 | 0.00 | 0.00 | 69 | 1013.0 |
| 20260906042011 | 27 | 104 | 1.6 | 6.4 | 0.00 | 0.00 | 0.00 | 68 | 1013.1 |
| 20260906041520 | 27 | 97 | 1.6 | 6.4 | 0.00 | 0.00 | 0.00 | 68 | 1013.1 |
| 20260906041015 | 27 | 118 | 1.6 | 4.8 | 0.00 | 0.00 | 0.00 | 68 | 1013.2 |
| 20260906040516 | 27 | 105 | 1.6 | 4.8 | 0.00 | 0.00 | 0.00 | 68 | 1013.3 |
| 20260906040026 | 27 | 108 | 0.0 | 3.2 | 0.00 | 0.00 | 0.00 | 68 | 1013.3 |
| 20260906035514 | 27 | 85 | 0.0 | 3.2 | 0.00 | 0.00 | 0.00 | 68 | 1013.3 |
| 20260906035016 | 27 | 99 | 1.6 | 3.2 | 0.00 | 0.00 | 0.00 | 67 | 1013.2 |
| 20260906034530 | 27 | 95 | 0.0 | 4.8 | 0.00 | 0.00 | 0.00 | 66 | 1013.4 |
| 20260906034015 | 27 | 128 | 0.0 | 4.8 | 0.00 | 0.00 | 0.00 | 66 | 1013.5 |
| 20260906033518 | 27 | 345 | 1.6 | 4.8 | 0.00 | 0.00 | 0.00 | 66 | 1013.3 |
| 20260906033031 | 27 | 83 | 1.6 | 3.2 | 0.00 | 0.00 | 0.00 | 68 | 1013.4 |
| 20260906032515 | 27 | 120 | 0.0 | 3.2 | 0.00 | 0.00 | 0.00 | 67 | 1012.9 |
| 20260906032015 | 27 | 120 | 0.0 | 0.0 | 0.00 | 0.00 | 0.00 | 66 | 1012.5 |
| 20260906031518 | 27 | 120 | 0.0 | 3.2 | 0.00 | 0.00 | 0.00 | 66 | 1012.4 |
| 20260906031012 | 27 | 120 | 0.0 | 3.2 | 0.00 | 0.00 | 0.00 | 66 | 1012.6 |
| 20260906030512 | 27 | 95 | 0.0 | 3.2 | 0.00 | 0.00 | 0.00 | 66 | 1012.8 |
| 20260906030027 | 27 | 89 | 0.0 | 3.2 | 0.00 | 0.00 | 0.00 | 67 | 1012.8 |
| 20260906025518 | 27 | 89 | 0.0 | 3.2 | 0.00 | 0.00 | 0.00 | 67 | 1012.7 |
| 20260906025017 | 27 | 89 | 1.6 | 3.2 | 0.00 | 0.00 | 0.00 | 67 | 1012.6 |
| 20260906024530 | 27 | 18 | 0.0 | 1.6 | 0.00 | 0.00 | 0.00 | 66 | 1012.6 |
| 20260906024016 | 27 | 58 | 0.0 | 0.0 | 0.00 | 0.00 | 0.00 | 66 | 1012.5 |
| 20260906023517 | 27 | 58 | 0.0 | 3.2 | 0.00 | 0.00 | 0.00 | 65 | 1012.3 |
| 20260906023042 | 27 | 58 | 0.0 | 3.2 | 0.00 | 0.00 | 0.00 | 66 | 1012.3 |
| 20260906022515 | 28 | 58 | 0.0 | 3.2 | 0.00 | 0.00 | 0.00 | 63 | 1012.3 |
| 20260906022021 | 28 | 360 | 0.0 | 4.8 | 0.00 | 0.00 | 0.00 | 64 | 1012.4 |
| 20260906021532 | 27 | 339 | 3.2 | 4.8 | 0.00 | 0.00 | 0.00 | 64 | 1012.3 |
| 20260906021020 | 27 | 97 | 1.6 | 4.8 | 0.00 | 0.00 | 0.00 | 65 | 1012.3 |
| 20260906020512 | 27 | 18 | 1.6 | 3.2 | 0.00 | 0.00 | 0.00 | 65 | 1011.8 |
| 20260906020023 | 27 | 167 | 0.0 | 3.2 | 0.00 | 0.00 | 0.00 | 64 | 1011.6 |
| 20260906015513 | 27 | 167 | 0.0 | 3.2 | 0.00 | 0.00 | 0.00 | 64 | 1011.4 |
| 20260906015015 | 27 | 167 | 0.0 | 3.2 | 0.00 | 0.00 | 0.00 | 63 | 1011.4 |
| 20260906014528 | 28 | 167 | 0.0 | 3.2 | 0.00 | 0.00 | 0.00 | 63 | 1011.4 |
| 20260906014015 | 28 | 167 | 0.0 | 3.2 | 0.00 | 0.00 | 0.00 | 62 | 1011.5 |
| 20260906013516 | 28 | 89 | 0.0 | 3.2 | 0.00 | 0.00 | 0.00 | 60 | 1011.5 |
| 20260906013046 | 28 | 79 | 0.0 | 3.2 | 0.00 | 0.00 | 0.00 | 59 | 1011.5 |
| 20260906012520 | 28 | 79 | 0.0 | 3.2 | 0.00 | 0.00 | 0.00 | 59 | 1011.7 |
| 20260906012020 | 29 | 79 | 0.0 | 3.2 | 0.00 | 0.00 | 0.00 | 59 | 1011.8 |
| 20260906011540 | 29 | 93 | 0.0 | 4.8 | 0.00 | 0.00 | 0.00 | 57 | 1011.8 |
| 20260906011018 | 29 | 66 | 0.0 | 4.8 | 0.00 | 0.00 | 0.00 | 57 | 1011.7 |
| 20260906010517 | 29 | 164 | 1.6 | 4.8 | 0.00 | 0.00 | 0.00 | 56 | 1011.7 |
| 20260906010039 | 29 | 197 | 0.0 | 3.2 | 0.00 | 0.00 | 0.00 | 57 | 1011.7 |
| 20260906005514 | 29 | 168 | 1.6 | 3.2 | 0.00 | 0.00 | 0.00 | 58 | 1011.8 |
| 20260906005013 | 29 | 184 | 0.0 | 3.2 | 0.00 | 0.00 | 0.00 | 58 | 1011.7 |
| 20260906004525 | 29 | 89 | 0.0 | 3.2 | 0.00 | 0.00 | 0.00 | 57 | 1011.6 |
| 20260906004012 | 30 | 104 | 1.6 | 3.2 | 0.00 | 0.00 | 0.00 | 57 | 1011.6 |
| 20260906003516 | 30 | 79 | 1.6 | 3.2 | 0.00 | 0.00 | 0.00 | 56 | 1011.8 |
| 20260906003030 | 30 | 84 | 1.6 | 4.8 | 0.00 | 0.00 | 0.00 | 55 | 1011.9 |
| 20260906002517 | 30 | 103 | 1.6 | 8.0 | 0.00 | 0.00 | 0.00 | 54 | 1011.8 |
| 20260906002018 | 30 | 85 | 0.0 | 16.1 | 0.00 | 0.00 | 0.00 | 54 | 1012.1 |
| 20260906001535 | 31 | 89 | 4.8 | 16.1 | 0.00 | 0.00 | 0.00 | 52 | 1012.1 |
| 20260906001016 | 31 | 56 | 6.4 | 16.1 | 0.00 | 0.00 | 0.00 | 54 | 1012.0 |
| 20260906000516 | 32 | 39 | 1.6 | 6.4 | 0.00 | 0.00 | 0.00 | 55 | 1011.9 |
| 20260906000049 | 33 | 76 | 1.6 | 3.2 | 0.00 | 0.00 | 0.00 | 55 | 1011.9 |
| 20260905235510 | 33 | 22 | 0.0 | 3.2 | 0.00 | 0.00 | 0.00 | 54 | 1011.5 |
| 20260905235015 | 33 | 110 | 0.0 | 3.2 | 0.00 | 0.00 | 0.00 | 53 | 1011.4 |
| 20260905234523 | 33 | 110 | 0.0 | 4.8 | 0.00 | 0.00 | 0.00 | 52 | 1011.4 |
| 20260905234014 | 33 | 110 | 1.6 | 4.8 | 0.00 | 0.00 | 0.00 | 51 | 1011.3 |
| 20260905233514 | 34 | 84 | 1.6 | 3.2 | 0.00 | 0.00 | 0.00 | 50 | 1011.4 |
| 20260905233025 | 35 | 107 | 1.6 | 9.7 | 0.00 | 0.00 | 0.00 | 49 | 1011.3 |
| 20260905232513 | 35 | 343 | 0.0 | 9.7 | 0.00 | 0.00 | 0.00 | 46 | 1011.1 |
| 20260905232016 | 36 | 264 | 4.8 | 9.7 | 0.00 | 0.00 | 0.00 | 44 | 1011.2 |
| 20260905231530 | 36 | 267 | 1.6 | 6.4 | 0.00 | 0.00 | 0.00 | 42 | 1011.1 |
| 20260905231016 | 36 | 255 | 3.2 | 8.0 | 0.00 | 0.00 | 0.00 | 42 | 1011.1 |
| 20260905230515 | 36 | 251 | 1.6 | 8.0 | 0.00 | 0.00 | 0.00 | 42 | 1011.0 |
| 20260905230010 | 36 | 341 | 3.2 | 8.0 | 0.00 | 0.00 | 0.00 | 42 | 1011.0 |
| 20260905225511 | 36 | 265 | 3.2 | 8.0 | 0.00 | 0.00 | 0.00 | 41 | 1011.1 |
| 20260905225010 | 36 | 324 | 0.0 | 9.7 | 0.00 | 0.00 | 0.00 | 40 | 1011.1 |
| 20260905224518 | 37 | 239 | 3.2 | 8.0 | 0.00 | 0.00 | 0.00 | 39 | 1011.1 |
| 20260905224013 | 37 | 264 | 1.6 | 6.4 | 0.00 | 0.00 | 0.00 | 40 | 1011.2 |
| 20260905223513 | 37 | 293 | 1.6 | 9.7 | 0.00 | 0.00 | 0.00 | 40 | 1011.2 |
| 20260905223025 | 37 | 301 | 3.2 | 11.3 | 0.00 | 0.00 | 0.00 | 40 | 1011.3 |
| 20260905222515 | 37 | 320 | 3.2 | 11.3 | 0.00 | 0.00 | 0.00 | 40 | 1011.2 |
| 20260905222015 | 37 | 320 | 1.6 | 12.9 | 0.00 | 0.00 | 0.00 | 40 | 1011.2 |
| 20260905221532 | 37 | 270 | 4.8 | 14.5 | 0.00 | 0.00 | 0.00 | 40 | 1011.2 |
| 20260905221017 | 37 | 265 | 4.8 | 14.5 | 0.00 | 0.00 | 0.00 | 39 | 1011.1 |
| 20260905220518 | 37 | 266 | 3.2 | 16.1 | 0.00 | 0.00 | 0.00 | 41 | 1011.1 |
| 20260905220030 | 37 | 342 | 4.8 | 16.1 | 0.00 | 0.00 | 0.00 | 41 | 1011.1 |
| 20260905215517 | 37 | 311 | 4.8 | 14.5 | 0.00 | 0.00 | 0.00 | 41 | 1011.2 |
| 20260905215008 | 37 | 326 | 6.4 | 14.5 | 0.00 | 0.00 | 0.00 | 41 | 1011.2 |
| 20260905214518 | 37 | 250 | 9.7 | 14.5 | 0.00 | 0.00 | 0.00 | 41 | 1011.1 |
| 20260905214010 | 37 | 261 | 3.2 | 14.5 | 0.00 | 0.00 | 0.00 | 40 | 1011.1 |
| 20260905213513 | 37 | 311 | 4.8 | 14.5 | 0.00 | 0.00 | 0.00 | 41 | 1011.1 |
| 20260905213023 | 37 | 254 | 4.8 | 16.1 | 0.00 | 0.00 | 0.00 | 40 | 1011.2 |
| 20260905212516 | 37 | 266 | 6.4 | 16.1 | 0.00 | 0.00 | 0.00 | 40 | 1011.3 |
| 20260905212013 | 37 | 229 | 4.8 | 14.5 | 0.00 | 0.00 | 0.00 | 41 | 1011.2 |
| 20260905211529 | 37 | 332 | 8.0 | 14.5 | 0.00 | 0.00 | 0.00 | 40 | 1011.3 |
| 20260905211015 | 37 | 280 | 6.4 | 16.1 | 0.00 | 0.00 | 0.00 | 40 | 1011.4 |
| 20260905210519 | 37 | 252 | 6.4 | 16.1 | 0.00 | 0.00 | 0.00 | 42 | 1011.3 |
| 20260905210031 | 37 | 303 | 6.4 | 14.5 | 0.00 | 0.00 | 0.00 | 42 | 1011.5 |
| 20260905205503 | 37 | 246 | 0.0 | 11.3 | 0.00 | 0.00 | 0.00 | 42 | 1011.6 |
| 20260905205004 | 37 | 316 | 3.2 | 11.3 | 0.00 | 0.00 | 0.00 | 41 | 1011.6 |
| 20260905204508 | 37 | 311 | 3.2 | 11.3 | 0.00 | 0.00 | 0.00 | 42 | 1011.5 |
| 20260905204003 | 37 | 311 | 6.4 | 11.3 | 0.00 | 0.00 | 0.00 | 43 | 1011.6 |
| 20260905203504 | 37 | 231 | 1.6 | 9.7 | 0.00 | 0.00 | 0.00 | 44 | 1011.7 |
| 20260905203004 | 37 | 343 | 1.6 | 12.9 | 0.00 | 0.00 | 0.00 | 42 | 1011.8 |
| 20260905202502 | 37 | 303 | 4.8 | 12.9 | 0.00 | 0.00 | 0.00 | 43 | 1012.0 |
| 20260905202003 | 37 | 357 | 3.2 | 11.3 | 0.00 | 0.00 | 0.00 | 42 | 1012.0 |
| 20260905201508 | 37 | 195 | 4.8 | 19.3 | 0.00 | 0.00 | 0.00 | 43 | 1012.1 |
| 20260905201001 | 37 | 303 | 11.3 | 19.3 | 0.00 | 0.00 | 0.00 | 42 | 1012.1 |
| 20260905200506 | 37 | 287 | 6.4 | 14.5 | 0.00 | 0.00 | 0.00 | 44 | 1012.2 |
| 20260905200006 | 37 | 215 | 3.2 | 14.5 | 0.00 | 0.00 | 0.00 | 45 | 1012.4 |
| 20260905195502 | 37 | 238 | 6.4 | 14.5 | 0.00 | 0.00 | 0.00 | 43 | 1012.6 |
| 20260905195008 | 37 | 195 | 3.2 | 12.9 | 0.00 | 0.00 | 0.00 | 43 | 1012.6 |
| 20260905194504 | 37 | 264 | 4.8 | 12.9 | 0.00 | 0.00 | 0.00 | 44 | 1012.6 |
| 20260905194003 | 37 | 328 | 4.8 | 12.9 | 0.00 | 0.00 | 0.00 | 43 | 1012.6 |
| 20260905193502 | 37 | 349 | 6.4 | 12.9 | 0.00 | 0.00 | 0.00 | 44 | 1012.7 |
| 20260905193007 | 37 | 311 | 6.4 | 12.9 | 0.00 | 0.00 | 0.00 | 44 | 1012.7 |
| 20260905192504 | 37 | 8 | 3.2 | 9.7 | 0.00 | 0.00 | 0.00 | 44 | 1012.7 |
| 20260905192007 | 36 | 303 | 3.2 | 12.9 | 0.00 | 0.00 | 0.00 | 45 | 1012.8 |
| 20260905191504 | 36 | 232 | 6.4 | 16.1 | 0.00 | 0.00 | 0.00 | 44 | 1012.8 |
| 20260905191004 | 37 | 176 | 6.4 | 16.1 | 0.00 | 0.00 | 0.00 | 43 | 1012.9 |
| 20260905190503 | 37 | 238 | 3.2 | 11.3 | 0.00 | 0.00 | 0.00 | 44 | 1012.9 |
| 20260905190006 | 36 | 303 | 3.2 | 11.3 | 0.00 | 0.00 | 0.00 | 44 | 1013.0 |
| 20260905185505 | 36 | 43 | 3.2 | 9.7 | 0.00 | 0.00 | 0.00 | 45 | 1013.1 |
| 20260905185002 | 36 | 276 | 1.6 | 16.1 | 0.00 | 0.00 | 0.00 | 44 | 1013.2 |
| 20260905184511 | 36 | 301 | 6.4 | 16.1 | 0.00 | 0.00 | 0.00 | 43 | 1013.2 |
| 20260905184003 | 36 | 234 | 4.8 | 12.9 | 0.00 | 0.00 | 0.00 | 44 | 1013.4 |
| 20260905183503 | 36 | 316 | 4.8 | 8.0 | 0.00 | 0.00 | 0.00 | 45 | 1013.4 |
| 20260905183014 | 36 | 217 | 1.6 | 8.0 | 0.00 | 0.00 | 0.00 | 46 | 1013.5 |
| 20260905182503 | 36 | 351 | 6.4 | 9.7 | 0.00 | 0.00 | 0.00 | 46 | 1013.7 |
| 20260905182006 | 36 | 311 | 4.8 | 12.9 | 0.00 | 0.00 | 0.00 | 46 | 1013.8 |
| 20260905181508 | 36 | 238 | 3.2 | 12.9 | 0.00 | 0.00 | 0.00 | 45 | 1013.8 |
| 20260905181006 | 36 | 276 | 4.8 | 12.9 | 0.00 | 0.00 | 0.00 | 47 | 1013.8 |
| 20260905180507 | 36 | 328 | 4.8 | 12.9 | 0.00 | 0.00 | 0.00 | 45 | 1013.9 |
| 20260905180004 | 36 | 251 | 6.4 | 11.3 | 0.00 | 0.00 | 0.00 | 45 | 1013.9 |
| 20260905175503 | 36 | 303 | 6.4 | 12.9 | 0.00 | 0.00 | 0.00 | 46 | 1013.9 |
| 20260905175004 | 36 | 250 | 4.8 | 12.9 | 0.00 | 0.00 | 0.00 | 47 | 1014.0 |
| 20260905174509 | 36 | 149 | 1.6 | 6.4 | 0.00 | 0.00 | 0.00 | 46 | 1014.1 |
| 20260905174006 | 36 | 91 | 1.6 | 6.4 | 0.00 | 0.00 | 0.00 | 48 | 1014.1 |
| 20260905173506 | 36 | 226 | 1.6 | 6.4 | 0.00 | 0.00 | 0.00 | 50 | 1014.1 |
| 20260905173009 | 36 | 107 | 1.6 | 6.4 | 0.00 | 0.00 | 0.00 | 49 | 1014.1 |
| 20260905172503 | 35 | 320 | 3.2 | 4.8 | 0.00 | 0.00 | 0.00 | 48 | 1014.1 |
| 20260905172003 | 35 | 266 | 1.6 | 9.7 | 0.00 | 0.00 | 0.00 | 48 | 1014.1 |
| 20260905171508 | 35 | 110 | 1.6 | 9.7 | 0.00 | 0.00 | 0.00 | 49 | 1014.2 |
| 20260905171008 | 35 | 337 | 3.2 | 9.7 | 0.00 | 0.00 | 0.00 | 49 | 1014.3 |
| 20260905170504 | 35 | 333 | 3.2 | 8.0 | 0.00 | 0.00 | 0.00 | 49 | 1014.3 |
| 20260905170008 | 35 | 298 | 3.2 | 8.0 | 0.00 | 0.00 | 0.00 | 49 | 1014.4 |
| 20260905165506 | 35 | 268 | 3.2 | 6.4 | 0.00 | 0.00 | 0.00 | 51 | 1014.4 |
| 20260905165002 | 35 | 291 | 3.2 | 6.4 | 0.00 | 0.00 | 0.00 | 53 | 1014.4 |
| 20260905164505 | 34 | 360 | 1.6 | 4.8 | 0.00 | 0.00 | 0.00 | 52 | 1014.4 |
| 20260905164004 | 34 | 279 | 1.6 | 9.7 | 0.00 | 0.00 | 0.00 | 51 | 1014.6 |
| 20260905163510 | 34 | 355 | 1.6 | 9.7 | 0.00 | 0.00 | 0.00 | 53 | 1014.6 |
| 20260905163007 | 33 | 320 | 1.6 | 6.4 | 0.00 | 0.00 | 0.00 | 54 | 1014.7 |
| 20260905162504 | 33 | 201 | 1.6 | 8.0 | 0.00 | 0.00 | 0.00 | 56 | 1014.7 |
| 20260905162005 | 33 | 228 | 4.8 | 8.0 | 0.00 | 0.00 | 0.00 | 55 | 1014.8 |
| 20260905161510 | 33 | 341 | 1.6 | 8.0 | 0.00 | 0.00 | 0.00 | 56 | 1014.9 |
| 20260905161006 | 32 | 235 | 1.6 | 8.0 | 0.00 | 0.00 | 0.00 | 57 | 1015.0 |
| 20260905160503 | 32 | 28 | 1.6 | 9.7 | 0.00 | 0.00 | 0.00 | 57 | 1015.1 |
| 20260905160009 | 32 | 202 | 1.6 | 11.3 | 0.00 | 0.00 | 0.00 | 61 | 1015.1 |
| 20260905155508 | 32 | 316 | 3.2 | 11.3 | 0.00 | 0.00 | 0.00 | 61 | 1015.2 |
| 20260905155008 | 32 | 246 | 4.8 | 8.0 | 0.00 | 0.00 | 0.00 | 62 | 1015.2 |
| 20260905154509 | 31 | 194 | 3.2 | 6.4 | 0.00 | 0.00 | 0.00 | 62 | 1015.2 |
| 20260905154003 | 31 | 5 | 3.2 | 6.4 | 0.00 | 0.00 | 0.00 | 64 | 1015.3 |
| 20260905153506 | 31 | 268 | 3.2 | 8.0 | 0.00 | 0.00 | 0.00 | 67 | 1015.4 |
| 20260905153007 | 31 | 250 | 4.8 | 8.0 | 0.00 | 0.00 | 0.00 | 69 | 1015.4 |
| 20260905152507 | 31 | 239 | 1.6 | 6.4 | 0.00 | 0.00 | 0.00 | 69 | 1015.4 |
| 20260905152010 | 30 | 197 | 1.6 | 6.4 | 0.00 | 0.00 | 0.00 | 70 | 1015.4 |
| 20260905151510 | 30 | 209 | 1.6 | 6.4 | 0.00 | 0.00 | 0.00 | 72 | 1015.4 |
| 20260905151010 | 30 | 245 | 3.2 | 6.4 | 0.00 | 0.00 | 0.00 | 72 | 1015.4 |
| 20260905150507 | 29 | 235 | 3.2 | 6.4 | 0.00 | 0.00 | 0.00 | 73 | 1015.4 |
| 20260905150010 | 29 | 253 | 1.6 | 4.8 | 0.00 | 0.00 | 0.00 | 73 | 1015.4 |
| 20260905145505 | 29 | 326 | 1.6 | 6.4 | 0.00 | 0.00 | 0.00 | 74 | 1015.5 |
| 20260905145010 | 29 | 16 | 1.6 | 6.4 | 0.00 | 0.00 | 0.00 | 76 | 1015.6 |
| 20260905144511 | 28 | 247 | 3.2 | 4.8 | 0.00 | 0.00 | 0.00 | 77 | 1015.6 |
| 20260905144007 | 28 | 264 | 0.0 | 4.8 | 0.00 | 0.00 | 0.00 | 77 | 1015.6 |
| 20260905143512 | 28 | 233 | 1.6 | 3.2 | 0.00 | 0.00 | 0.00 | 79 | 1015.6 |
| 20260905143008 | 28 | 156 | 0.0 | 3.2 | 0.00 | 0.00 | 0.00 | 80 | 1015.5 |
| 20260905142506 | 27 | 192 | 0.0 | 3.2 | 0.00 | 0.00 | 0.00 | 80 | 1015.6 |
| 20260905142006 | 27 | 264 | 1.6 | 3.2 | 0.00 | 0.00 | 0.00 | 81 | 1015.6 |
| 20260905141510 | 27 | 230 | 0.0 | 3.2 | 0.00 | 0.00 | 0.00 | 82 | 1015.7 |
| 20260905141009 | 27 | 230 | 1.6 | 3.2 | 0.00 | 0.00 | 0.00 | 84 | 1015.6 |
| 20260905140506 | 27 | 262 | 0.0 | 1.6 | 0.00 | 0.00 | 0.00 | 84 | 1015.7 |
| 20260905140012 | 26 | 262 | 0.0 | 3.2 | 0.00 | 0.00 | 0.00 | 83 | 1015.7 |
| 20260905135507 | 26 | 262 | 0.0 | 3.2 | 0.00 | 0.00 | 0.00 | 84 | 1015.7 |
| 20260905135010 | 26 | 262 | 0.0 | 3.2 | 0.00 | 0.00 | 0.00 | 84 | 1015.7 |
| 20260905134511 | 26 | 262 | 0.0 | 3.2 | 0.00 | 0.00 | 0.00 | 84 | 1015.7 |
| 20260905134009 | 26 | 262 | 0.0 | 3.2 | 0.00 | 0.00 | 0.00 | 84 | 1015.6 |
| 20260905133507 | 26 | 262 | 0.0 | 3.2 | 0.00 | 0.00 | 0.00 | 85 | 1015.6 |
| 20260905133017 | 26 | 268 | 0.0 | 3.2 | 0.00 | 0.00 | 0.00 | 85 | 1015.7 |
| 20260905132508 | 26 | 268 | 0.0 | 3.2 | 0.00 | 0.00 | 0.00 | 85 | 1015.8 |
| 20260905132005 | 26 | 270 | 0.0 | 3.2 | 0.00 | 0.00 | 0.00 | 85 | 1015.8 |
| 20260905131510 | 26 | 303 | 0.0 | 3.2 | 0.00 | 0.00 | 0.00 | 86 | 1015.8 |
| 20260905131007 | 25 | 311 | 0.0 | 1.6 | 0.00 | 0.00 | 0.00 | 85 | 1015.8 |
| 20260905130510 | 25 | 4 | 0.0 | 0.0 | 0.00 | 0.00 | 0.00 | 86 | 1015.7 |
| 20260905130017 | 25 | 4 | 0.0 | 3.2 | 0.00 | 0.00 | 0.00 | 85 | 1015.8 |
| 20260905125510 | 25 | 4 | 0.0 | 3.2 | 0.00 | 0.00 | 0.00 | 85 | 1015.8 |
| 20260905125010 | 25 | 4 | 0.0 | 0.0 | 0.00 | 0.00 | 0.00 | 85 | 1015.8 |
| 20260905124514 | 25 | 4 | 0.0 | 0.0 | 0.00 | 0.00 | 0.00 | 85 | 1015.8 |
| 20260905124010 | 25 | 4 | 0.0 | 0.0 | 0.00 | 0.00 | 0.00 | 86 | 1015.8 |
| 20260905123508 | 25 | 4 | 0.0 | 0.0 | 0.00 | 0.00 | 0.00 | 86 | 1015.7 |
| 20260905123014 | 25 | 4 | 0.0 | 0.0 | 0.00 | 0.00 | 0.00 | 87 | 1015.7 |
| 20260905122510 | 24 | 4 | 0.0 | 0.0 | 0.00 | 0.00 | 0.00 | 87 | 1015.6 |
| 20260905122010 | 24 | 4 | 0.0 | 0.0 | 0.00 | 0.00 | 0.00 | 87 | 1015.6 |
| 20260905121515 | 24 | 4 | 0.0 | 0.0 | 0.00 | 0.00 | 0.00 | 87 | 1015.5 |
| 20260905121012 | 24 | 4 | 0.0 | 0.0 | 0.00 | 0.00 | 0.00 | 88 | 1015.5 |
| 20260905120506 | 23 | 4 | 0.0 | 0.0 | 0.00 | 0.00 | 0.00 | 88 | 1015.5 |
| 20260905120014 | 23 | 4 | 0.0 | 0.0 | 0.00 | 0.00 | 0.00 | 89 | 1015.4 |
| 20260905115510 | 23 | 4 | 0.0 | 0.0 | 0.00 | 0.00 | 0.00 | 89 | 1015.4 |
| 20260905115010 | 23 | 4 | 0.0 | 0.0 | 0.00 | 0.00 | 0.00 | 89 | 1015.4 |
| 20260905114518 | 23 | 4 | 0.0 | 0.0 | 0.00 | 0.00 | 0.00 | 89 | 1015.4 |